SDKAK ENZV-ENBR

Flight info

Callsign SDKAK
Flight time N/A
Altitude 11000
Route ALUVA
Aircraft C172/L-SFG/C

Departure

Time 2026-04-29 07:58
Airport Stavanger Airport, Sola (ENZV)

Arrival

Time N/A
Airport Bergen Airport, Flesland (ENBR)
Time Latitude Longitude Altitude Speed Heading
2026-04-29 07:52 58.87069 5.62779 25 ft 0 kts 229°
2026-04-29 07:55 58.87057 5.62784 25 ft 8 kts 116°
2026-04-29 07:55 58.87018 5.62967 25 ft 21 kts 115°
2026-04-29 07:55 58.86986 5.63188 26 ft 15 kts 96°
2026-04-29 07:56 58.86986 5.63366 26 ft 12 kts 90°
2026-04-29 07:56 58.86995 5.63497 28 ft 8 kts 64°
2026-04-29 07:56 58.87013 5.63570 29 ft 4 kts 64°
2026-04-29 07:56 58.87035 5.63651 30 ft 10 kts 60°
2026-04-29 07:57 58.87082 5.63786 30 ft 12 kts 20°
2026-04-29 07:57 58.87208 5.63795 29 ft 37 kts 358°
2026-04-29 07:57 58.87603 5.63788 62 ft 69 kts 359°
2026-04-29 07:57 58.88108 5.63785 240 ft 75 kts 360°
2026-04-29 07:58 58.88633 5.63772 469 ft 75 kts 359°
2026-04-29 07:58 58.89161 5.63744 708 ft 75 kts 359°
2026-04-29 07:58 58.89677 5.63702 992 ft 73 kts 357°
2026-04-29 07:58 58.90172 5.63657 1264 ft 71 kts 358°
2026-04-29 07:59 58.90673 5.63586 1462 ft 74 kts 342°
2026-04-29 07:59 58.91105 5.62980 1673 ft 80 kts 316°
2026-04-29 07:59 58.91357 5.61993 1869 ft 83 kts 300°
2026-04-29 07:59 58.91630 5.60969 2042 ft 94 kts 299°
2026-04-29 08:00 58.91927 5.59776 2205 ft 104 kts 298°
2026-04-29 08:00 58.92245 5.58466 2341 ft 110 kts 298°
2026-04-29 08:00 58.92587 5.57123 2481 ft 112 kts 300°
2026-04-29 08:00 58.92925 5.55749 2608 ft 113 kts 299°
2026-04-29 08:01 58.93266 5.54378 2740 ft 112 kts 300°
2026-04-29 08:01 58.93599 5.53031 2867 ft 112 kts 298°
2026-04-29 08:01 58.93939 5.51664 2995 ft 113 kts 298°
2026-04-29 08:01 58.94277 5.50298 3127 ft 112 kts 299°
2026-04-29 08:02 58.94616 5.48934 3253 ft 113 kts 298°
2026-04-29 08:02 58.94953 5.47566 3381 ft 112 kts 299°
2026-04-29 08:02 58.95289 5.46211 3511 ft 111 kts 299°
2026-04-29 08:02 58.95624 5.44854 3640 ft 111 kts 300°
2026-04-29 08:03 58.95953 5.43528 3754 ft 110 kts 299°
2026-04-29 08:03 58.96284 5.42187 3886 ft 110 kts 298°
2026-04-29 08:03 58.96612 5.40851 4012 ft 109 kts 299°
2026-04-29 08:03 58.96938 5.39535 4133 ft 109 kts 298°
2026-04-29 08:04 58.97263 5.38212 4267 ft 108 kts 298°
2026-04-29 08:04 58.97587 5.36897 4391 ft 108 kts 299°
2026-04-29 08:04 58.97909 5.35589 4517 ft 107 kts 299°
2026-04-29 08:04 58.98232 5.34276 4652 ft 107 kts 299°
2026-04-29 08:05 58.98554 5.32968 4780 ft 107 kts 300°
2026-04-29 08:05 58.98868 5.31687 4908 ft 106 kts 300°
2026-04-29 08:05 58.99186 5.30396 5037 ft 106 kts 300°
2026-04-29 08:05 58.99501 5.29109 5166 ft 105 kts 300°
2026-04-29 08:06 58.99816 5.27823 5298 ft 105 kts 300°
2026-04-29 08:06 59.00130 5.26544 5422 ft 105 kts 300°
2026-04-29 08:06 59.00438 5.25287 5546 ft 104 kts 300°
2026-04-29 08:06 59.00750 5.24012 5672 ft 104 kts 301°
2026-04-29 08:07 59.01060 5.22746 5798 ft 103 kts 301°
2026-04-29 08:07 59.01367 5.21489 5924 ft 103 kts 301°
2026-04-29 08:07 59.01670 5.20247 6053 ft 102 kts 301°
2026-04-29 08:07 59.01976 5.18998 6176 ft 102 kts 301°
2026-04-29 08:08 59.02279 5.17756 6304 ft 102 kts 301°
2026-04-29 08:08 59.02578 5.16528 6434 ft 101 kts 301°
2026-04-29 08:08 59.02879 5.15296 6556 ft 101 kts 301°
2026-04-29 08:08 59.03179 5.14064 6690 ft 100 kts 301°
2026-04-29 08:09 59.03476 5.12844 6819 ft 100 kts 301°
2026-04-29 08:09 59.03768 5.11645 6935 ft 99 kts 301°
2026-04-29 08:09 59.04065 5.10426 7062 ft 98 kts 302°
2026-04-29 08:09 59.04352 5.09243 7173 ft 97 kts 302°
2026-04-29 08:10 59.04642 5.08052 7294 ft 97 kts 302°
2026-04-29 08:10 59.04931 5.06864 7415 ft 97 kts 302°
2026-04-29 08:10 59.05215 5.05692 7535 ft 96 kts 302°
2026-04-29 08:10 59.05501 5.04511 7656 ft 96 kts 302°
2026-04-29 08:11 59.05786 5.03339 7778 ft 95 kts 302°
2026-04-29 08:11 59.06068 5.02175 7900 ft 95 kts 302°
2026-04-29 08:11 59.06344 5.01033 8027 ft 94 kts 302°
2026-04-29 08:11 59.06623 4.99881 8152 ft 94 kts 302°
2026-04-29 08:12 59.07003 4.98923 8271 ft 86 kts 336°
2026-04-29 08:12 59.07550 4.98581 8397 ft 82 kts
2026-04-29 08:12 59.08117 4.98587 8524 ft 81 kts 359°
2026-04-29 08:12 59.08671 4.98545 8649 ft 80 kts
2026-04-29 08:13 59.09226 4.98510 8773 ft 79 kts
2026-04-29 08:13 59.09771 4.98479 8899 ft 77 kts
2026-04-29 08:13 59.10304 4.98450 9023 ft 76 kts
2026-04-29 08:13 59.10821 4.98422 9146 ft 74 kts
2026-04-29 08:14 59.11329 4.98395 9271 ft 72 kts
2026-04-29 08:14 59.11823 4.98369 9393 ft 70 kts
2026-04-29 08:14 59.12298 4.98344 9513 ft 67 kts
2026-04-29 08:14 59.12745 4.98320 9629 ft 62 kts
2026-04-29 08:15 59.13162 4.98298 9724 ft 56 kts
2026-04-29 08:15 59.13527 4.98267 9703 ft 51 kts
2026-04-29 08:15 59.13752 4.98621 6983 ft 121 kts 126°
2026-04-29 08:15 59.13304 4.97708 2511 ft 161 kts 333°
2026-04-29 08:16 59.13698 4.98587 11 ft 9 kts 335°
2026-04-29 08:16 59.13699 4.98590 7 ft 0 kts 264°
2026-04-29 08:16 59.13699 4.98589 7 ft 0 kts 264°
2026-04-29 08:17 59.13699 4.98588 7 ft 0 kts 263°
2026-04-29 08:17 59.13699 4.98587 7 ft 0 kts 263°
2026-04-29 08:18 59.13699 4.98586 7 ft 0 kts 263°
2026-04-29 08:19 59.13699 4.98585 7 ft 0 kts 263°
2026-04-29 08:19 59.13699 4.98584 7 ft 0 kts 262°
2026-04-29 08:20 59.13698 4.98584 7 ft 0 kts 262°
2026-04-29 08:20 59.13698 4.98583 7 ft 0 kts 262°